Time,TemperatureF,DewpointF,PressureIn,WindDirection,WindDirectionDegrees,WindSpeedMPH,WindSpeedGustMPH,Humidity,HourlyPrecipIn,Conditions,Clouds,dailyrainin,SoftwareType,DateUTC
2013-07-14 00:08:00,68.0,64.0,30.10,East,86,0.0,-999.0,86,-99.99,,,0.00,weatherlink.com 1.10,2013-07-14 05:08:00,
2013-07-14 00:23:00,67.6,63.0,30.11,East,86,0.0,-999.0,86,-99.99,,,0.00,weatherlink.com 1.10,2013-07-14 05:23:00,
2013-07-14 00:38:00,67.3,63.0,30.10,East,86,0.0,-999.0,87,-99.99,,,0.00,weatherlink.com 1.10,2013-07-14 05:38:00,
2013-07-14 00:53:00,66.8,63.0,30.11,East,86,0.0,-999.0,88,-99.99,,,0.00,weatherlink.com 1.10,2013-07-14 05:53:00,
2013-07-14 01:08:00,66.1,63.0,30.11,East,86,0.0,-999.0,88,-99.99,,,0.00,weatherlink.com 1.10,2013-07-14 06:08:00,
2013-07-14 01:23:00,65.3,62.0,30.11,East,86,0.0,-999.0,90,-99.99,,,0.00,weatherlink.com 1.10,2013-07-14 06:23:00,
2013-07-14 01:39:00,64.8,62.0,30.11,East,86,0.0,-999.0,91,-99.99,,,0.00,weatherlink.com 1.10,2013-07-14 06:39:00,
2013-07-14 01:54:00,64.3,62.0,30.10,East,86,0.0,-999.0,91,-99.99,,,0.00,weatherlink.com 1.10,2013-07-14 06:54:00,
2013-07-14 02:09:00,64.1,62.0,30.11,East,86,0.0,-999.0,91,-99.99,,,0.00,weatherlink.com 1.10,2013-07-14 07:09:00,
2013-07-14 02:24:00,63.8,61.0,30.11,East,86,0.0,-999.0,91,-99.99,,,0.00,weatherlink.com 1.10,2013-07-14 07:24:00,
2013-07-14 02:39:00,63.5,61.0,30.10,East,86,0.0,-999.0,91,-99.99,,,0.00,weatherlink.com 1.10,2013-07-14 07:39:00,
2013-07-14 02:54:00,63.5,61.0,30.10,East,86,0.0,-999.0,91,-99.99,,,0.00,weatherlink.com 1.10,2013-07-14 07:54:00,
2013-07-14 03:09:00,63.4,61.0,30.11,East,86,0.0,-999.0,91,-99.99,,,0.00,weatherlink.com 1.10,2013-07-14 08:09:00,
2013-07-14 03:24:00,63.3,61.0,30.10,East,86,0.0,-999.0,91,-99.99,,,0.00,weatherlink.com 1.10,2013-07-14 08:24:00,
2013-07-14 03:40:00,63.1,61.0,30.10,East,86,0.0,-999.0,91,-99.99,,,0.00,weatherlink.com 1.10,2013-07-14 08:40:00,
2013-07-14 03:55:00,62.8,60.0,30.11,East,86,0.0,-999.0,91,-99.99,,,0.00,weatherlink.com 1.10,2013-07-14 08:55:00,
2013-07-14 04:10:00,62.3,60.0,30.10,East,86,0.0,-999.0,92,-99.99,,,0.00,weatherlink.com 1.10,2013-07-14 09:10:00,
2013-07-14 04:25:00,62.4,60.0,30.10,East,86,0.0,-999.0,93,-99.99,,,0.00,weatherlink.com 1.10,2013-07-14 09:25:00,
2013-07-14 04:40:00,62.7,60.0,30.10,East,86,0.0,-999.0,92,-99.99,,,0.00,weatherlink.com 1.10,2013-07-14 09:40:00,
2013-07-14 04:55:00,62.6,60.0,30.10,East,86,0.0,-999.0,92,-99.99,,,0.00,weatherlink.com 1.10,2013-07-14 09:55:00,
2013-07-14 05:10:00,62.5,61.0,30.10,East,86,0.0,-999.0,93,-99.99,,,0.00,weatherlink.com 1.10,2013-07-14 10:10:00,
2013-07-14 05:25:00,62.4,60.0,30.10,East,86,0.0,-999.0,93,-99.99,,,0.00,weatherlink.com 1.10,2013-07-14 10:25:00,
2013-07-14 05:41:00,62.4,60.0,30.11,East,86,0.0,-999.0,93,-99.99,,,0.00,weatherlink.com 1.10,2013-07-14 10:41:00,
2013-07-14 05:56:00,62.4,60.0,30.11,East,86,0.0,-999.0,93,-99.99,,,0.00,weatherlink.com 1.10,2013-07-14 10:56:00,
2013-07-14 06:11:00,62.2,60.0,30.11,East,86,0.0,-999.0,93,-99.99,,,0.00,weatherlink.com 1.10,2013-07-14 11:11:00,
2013-07-14 06:26:00,62.4,60.0,30.12,East,86,0.0,-999.0,93,-99.99,,,0.00,weatherlink.com 1.10,2013-07-14 11:26:00,
2013-07-14 06:41:00,62.8,61.0,30.13,East,86,0.0,-999.0,93,-99.99,,,0.00,weatherlink.com 1.10,2013-07-14 11:41:00,
2013-07-14 06:56:00,63.2,61.0,30.13,East,86,0.0,-999.0,93,-99.99,,,0.00,weatherlink.com 1.10,2013-07-14 11:56:00,
2013-07-14 07:11:00,63.6,62.0,30.13,East,86,0.0,-999.0,94,-99.99,,,0.00,weatherlink.com 1.10,2013-07-14 12:11:00,
2013-07-14 07:26:00,64.3,63.0,30.14,East,86,0.0,-999.0,95,-99.99,,,0.00,weatherlink.com 1.10,2013-07-14 12:26:00,
2013-07-14 07:41:00,65.5,63.0,30.13,East,86,0.0,-999.0,92,-99.99,,,0.00,weatherlink.com 1.10,2013-07-14 12:41:00,
2013-07-14 07:56:00,66.9,64.0,30.14,East,86,0.0,-999.0,90,-99.99,,,0.00,weatherlink.com 1.10,2013-07-14 12:56:00,
2013-07-14 08:11:00,68.1,65.0,30.14,East,86,0.0,-999.0,88,-99.99,,,0.00,weatherlink.com 1.10,2013-07-14 13:11:00,
2013-07-14 08:26:00,69.5,65.0,30.15,SE,130,0.0,-999.0,86,-99.99,,,0.00,weatherlink.com 1.10,2013-07-14 13:26:00,
2013-07-14 08:42:00,70.7,66.0,30.15,SE,130,0.0,-999.0,84,-99.99,,,0.00,weatherlink.com 1.10,2013-07-14 13:42:00,
2013-07-14 08:56:00,71.8,66.0,30.15,ESE,121,0.0,-999.0,83,-99.99,,,0.00,weatherlink.com 1.10,2013-07-14 13:56:00,
2013-07-14 09:12:00,72.9,67.0,30.15,SE,130,1.0,-999.0,81,-99.99,,,0.00,weatherlink.com 1.10,2013-07-14 14:12:00,
2013-07-14 09:27:00,73.7,67.0,30.15,ESE,123,0.0,-999.0,79,-99.99,,,0.00,weatherlink.com 1.10,2013-07-14 14:27:00,
2013-07-14 09:42:00,74.5,68.0,30.15,ESE,123,0.0,-999.0,79,-99.99,,,0.00,weatherlink.com 1.10,2013-07-14 14:42:00,
2013-07-14 09:57:00,75.1,68.0,30.15,ESE,120,0.0,-999.0,79,-99.99,,,0.00,weatherlink.com 1.10,2013-07-14 14:57:00,
2013-07-14 10:12:00,76.0,68.0,30.15,ESE,111,0.0,-999.0,77,-99.99,,,0.00,weatherlink.com 1.10,2013-07-14 15:12:00,
2013-07-14 10:27:00,77.4,69.0,30.15,ESE,116,0.0,-999.0,74,-99.99,,,0.00,weatherlink.com 1.10,2013-07-14 15:27:00,
2013-07-14 10:43:00,78.8,69.0,30.15,ESE,105,2.0,-999.0,72,-99.99,,,0.00,weatherlink.com 1.10,2013-07-14 15:43:00,
2013-07-14 10:58:00,79.6,69.0,30.15,ESE,116,1.0,-999.0,71,-99.99,,,0.00,weatherlink.com 1.10,2013-07-14 15:58:00,
2013-07-14 11:13:00,80.6,69.0,30.15,SE,128,0.0,-999.0,67,-99.99,,,0.00,weatherlink.com 1.10,2013-07-14 16:13:00,
2013-07-14 11:28:00,81.6,67.0,30.16,SE,130,5.0,-999.0,62,-99.99,,,0.00,weatherlink.com 1.10,2013-07-14 16:28:00,
2013-07-14 11:43:00,82.2,67.0,30.16,SSE,159,1.0,-999.0,60,-99.99,,,0.00,weatherlink.com 1.10,2013-07-14 16:43:00,
2013-07-14 11:58:00,82.0,69.0,30.16,SE,132,0.0,-999.0,65,-99.99,,,0.00,weatherlink.com 1.10,2013-07-14 16:58:00,
2013-07-14 12:13:00,83.2,67.0,30.16,ESE,116,0.0,-999.0,59,-99.99,,,0.00,weatherlink.com 1.10,2013-07-14 17:13:00,
2013-07-14 12:28:00,83.2,67.0,30.16,East,83,0.0,-999.0,59,-99.99,,,0.00,weatherlink.com 1.10,2013-07-14 17:28:00,
2013-07-14 12:44:00,83.8,67.0,30.16,SE,138,2.0,-999.0,58,-99.99,,,0.00,weatherlink.com 1.10,2013-07-14 17:44:00,
2013-07-14 12:59:00,84.5,69.0,30.15,ESE,120,0.0,-999.0,59,-99.99,,,0.00,weatherlink.com 1.10,2013-07-14 17:59:00,
2013-07-14 13:14:00,84.4,68.0,30.15,East,99,0.0,-999.0,58,-99.99,,,0.00,weatherlink.com 1.10,2013-07-14 18:14:00,
2013-07-14 13:29:00,85.0,68.0,30.14,East,101,0.0,-999.0,56,-99.99,,,0.00,weatherlink.com 1.10,2013-07-14 18:29:00,
2013-07-14 13:44:00,85.2,68.0,30.14,ESE,103,0.0,-999.0,57,-99.99,,,0.00,weatherlink.com 1.10,2013-07-14 18:44:00,
2013-07-14 13:59:00,84.8,68.0,30.14,ESE,108,0.0,-999.0,57,-99.99,,,0.00,weatherlink.com 1.10,2013-07-14 18:59:00,
2013-07-14 14:14:00,84.2,68.0,30.14,ESE,104,0.0,-999.0,59,-99.99,,,0.00,weatherlink.com 1.10,2013-07-14 19:14:00,
2013-07-14 14:29:00,84.6,67.0,30.14,ESE,103,0.0,-999.0,56,-99.99,,,0.00,weatherlink.com 1.10,2013-07-14 19:29:00,
2013-07-14 14:44:00,85.0,66.0,30.13,ESE,102,0.0,-999.0,53,-99.99,,,0.00,weatherlink.com 1.10,2013-07-14 19:44:00,
2013-07-14 14:59:00,85.4,68.0,30.13,East,96,0.0,-999.0,57,-99.99,,,0.00,weatherlink.com 1.10,2013-07-14 19:59:00,
2013-07-14 15:15:00,84.7,67.0,30.13,East,97,0.0,-999.0,55,-99.99,,,0.00,weatherlink.com 1.10,2013-07-14 20:15:00,
2013-07-14 15:30:00,84.4,67.0,30.14,East,85,0.0,-999.0,56,-99.99,,,0.00,weatherlink.com 1.10,2013-07-14 20:30:00,
2013-07-14 15:45:00,85.0,69.0,30.13,East,95,0.0,-999.0,58,-99.99,,,0.00,weatherlink.com 1.10,2013-07-14 20:45:00,
2013-07-14 16:00:00,84.9,67.0,30.13,East,96,0.0,-999.0,56,-99.99,,,0.00,weatherlink.com 1.10,2013-07-14 21:00:00,
2013-07-14 16:15:00,85.6,69.0,30.13,ESE,107,0.0,-999.0,57,-99.99,,,0.00,weatherlink.com 1.10,2013-07-14 21:15:00,
2013-07-14 16:30:00,84.8,66.0,30.12,East,99,0.0,-999.0,54,-99.99,,,0.00,weatherlink.com 1.10,2013-07-14 21:30:00,
2013-07-14 16:45:00,85.6,68.0,30.12,East,96,0.0,-999.0,56,-99.99,,,0.00,weatherlink.com 1.10,2013-07-14 21:45:00,
2013-07-14 17:00:00,85.7,67.0,30.12,East,95,2.0,-999.0,54,-99.99,,,0.00,weatherlink.com 1.10,2013-07-14 22:00:00,
2013-07-14 17:15:00,85.7,66.0,30.12,East,101,0.0,-999.0,52,-99.99,,,0.00,weatherlink.com 1.10,2013-07-14 22:15:00,
2013-07-14 17:30:00,85.6,66.0,30.12,ESE,107,0.0,-999.0,53,-99.99,,,0.00,weatherlink.com 1.10,2013-07-14 22:30:00,
2013-07-14 17:45:00,85.4,65.0,30.12,ESE,105,0.0,-999.0,51,-99.99,,,0.00,weatherlink.com 1.10,2013-07-14 22:45:00,
2013-07-14 18:00:00,85.3,66.0,30.12,ESE,108,4.0,-999.0,53,-99.99,,,0.00,weatherlink.com 1.10,2013-07-14 23:00:00,
2013-07-14 18:16:00,84.8,66.0,30.11,East,96,1.0,-999.0,53,-99.99,,,0.00,weatherlink.com 1.10,2013-07-14 23:16:00,
2013-07-14 18:31:00,84.6,66.0,30.12,ESE,102,0.0,-999.0,53,-99.99,,,0.00,weatherlink.com 1.10,2013-07-14 23:31:00,
2013-07-14 18:46:00,84.2,67.0,30.12,East,100,0.0,-999.0,56,-99.99,,,0.00,weatherlink.com 1.10,2013-07-14 23:46:00,
2013-07-14 19:01:00,83.8,67.0,30.12,ESE,103,0.0,-999.0,57,-99.99,,,0.00,weatherlink.com 1.10,2013-07-15 00:01:00,
2013-07-14 19:16:00,82.9,65.0,30.13,East,101,0.0,-999.0,55,-99.99,,,0.00,weatherlink.com 1.10,2013-07-15 00:16:00,
2013-07-14 19:31:00,82.4,66.0,30.13,East,101,0.0,-999.0,58,-99.99,,,0.00,weatherlink.com 1.10,2013-07-15 00:31:00,
2013-07-14 19:46:00,82.0,67.0,30.14,East,101,0.0,-999.0,60,-99.99,,,0.00,weatherlink.com 1.10,2013-07-15 00:46:00,
2013-07-14 20:01:00,81.3,66.0,30.14,East,101,0.0,-999.0,61,-99.99,,,0.00,weatherlink.com 1.10,2013-07-15 01:01:00,
2013-07-14 20:16:00,80.0,66.0,30.14,East,101,0.0,-999.0,63,-99.99,,,0.00,weatherlink.com 1.10,2013-07-15 01:16:00,
2013-07-14 20:31:00,78.2,65.0,30.14,East,101,0.0,-999.0,65,-99.99,,,0.00,weatherlink.com 1.10,2013-07-15 01:31:00,
2013-07-14 20:46:00,76.9,66.0,30.15,East,101,0.0,-999.0,68,-99.99,,,0.00,weatherlink.com 1.10,2013-07-15 01:46:00,
2013-07-14 21:01:00,75.6,65.0,30.15,East,101,0.0,-999.0,70,-99.99,,,0.00,weatherlink.com 1.10,2013-07-15 02:01:00,
2013-07-14 21:16:00,74.5,65.0,30.16,East,101,0.0,-999.0,72,-99.99,,,0.00,weatherlink.com 1.10,2013-07-15 02:16:00,
2013-07-14 21:31:00,73.7,65.0,30.16,East,101,0.0,-999.0,75,-99.99,,,0.00,weatherlink.com 1.10,2013-07-15 02:31:00,
2013-07-14 21:47:00,72.8,65.0,30.16,East,101,0.0,-999.0,76,-99.99,,,0.00,weatherlink.com 1.10,2013-07-15 02:47:00,
2013-07-14 22:02:00,71.9,65.0,30.17,East,101,0.0,-999.0,78,-99.99,,,0.00,weatherlink.com 1.10,2013-07-15 03:02:00,
2013-07-14 22:17:00,72.1,64.0,30.17,East,101,0.0,-999.0,76,-99.99,,,0.00,weatherlink.com 1.10,2013-07-15 03:17:00,
2013-07-14 22:32:00,72.5,65.0,30.18,East,101,0.0,-999.0,76,-99.99,,,0.00,weatherlink.com 1.10,2013-07-15 03:32:00,
2013-07-14 22:47:00,71.5,64.0,30.18,East,101,0.0,-999.0,78,-99.99,,,0.00,weatherlink.com 1.10,2013-07-15 03:47:00,
2013-07-14 23:02:00,70.4,64.0,30.18,East,101,0.0,-999.0,81,-99.99,,,0.00,weatherlink.com 1.10,2013-07-15 04:02:00,
2013-07-14 23:17:00,70.0,64.0,30.19,East,101,0.0,-999.0,82,-99.99,,,0.00,weatherlink.com 1.10,2013-07-15 04:17:00,
2013-07-14 23:32:00,69.3,64.0,30.19,East,101,0.0,-999.0,83,-99.99,,,0.00,weatherlink.com 1.10,2013-07-15 04:32:00,
2013-07-14 23:47:00,68.2,64.0,30.19,East,101,0.0,-999.0,86,-99.99,,,0.00,weatherlink.com 1.10,2013-07-15 04:47:00,